sat.trackr.live / text

‹ back to catalog

SCATSAT 1

NORAD 41790 · 2016-059H

PAYLOAD ACTIVE UNKNOWN

§ Identity

Operator
Country
IND
Launch date
2016-09-26
Launch site
SRILR
Launch vehicle
Mass (kg)
RCS (m²)
1.72

Purposes: earth_obs

External: N2YO · Heavens-Above · Gunter

§ Orbital elements

Epoch: 2026-09-19T09:58:39.820224Z

Period
97.32 min
Inclination
98.1098°
Eccentricity
0.0053259
Mean motion
14.79709404 rev/d
Perigee alt
592.9 km
Apogee alt
667.6 km
Semi-major
7,008.4 km
B*
8.8063e-5
RAAN
327.1164°
Arg perigee
305.0675°
Mean anomaly
54.5547°
Rev number
11,552

§ Raw data

SCATSAT 11 41790U 16059H   26262.41573866  .00000619  00000+0  88063-4 0  99942 41790  98.1098 327.1164 0053259 305.0675  54.5547 14.79709404115521

JSON: /api/v1/satellites/41790 · /tle

For live sub-satellite position, see the globe view (requires WebGL).

§ Visibility from observer

Set your observer location to see the next 7 days of passes ≥ 10°. The values pass through the URL so the page stays shareable.

No JS? Fill the form by hand. The geolocation button needs JavaScript.